DW7857 Weather Reports


Display with metric or nautical units.
time (UTC)temp
F
wind
direction
speed
MPH
gust
MPH
rain 1hr
in
rain 24hr
in
rain mn
in
humidity
%
barometer
mb
20190424000016 54 212 4.0 6.0 0.00 0.00 0.00 71 975.0
20190423235011 54 203 4.0 5.0 0.00 0.00 0.00 76 975.2
20190423234010 55 229 3.0 4.0 0.00 0.00 0.00 73 975.0
20190423233010 55 207 4.0 5.0 0.00 0.00 0.00 72 975.0
20190423232011 55 200 2.0 4.0 0.00 0.00 0.00 71 974.9
20190423231011 56 192 2.0 3.0 0.00 0.00 0.00 71 975.0
20190423230011 56 206 2.0 4.0 0.00 0.00 0.00 71 975.1
20190423225011 56 221 2.0 3.0 0.00 0.00 0.00 71 975.2
20190423224011 56 209 3.0 4.0 0.00 0.00 0.00 71 975.2
20190423223011 56 185 3.0 4.0 0.00 0.00 0.00 72 975.4
20190423222010 56 211 4.0 4.0 0.00 0.00 0.00 73 975.4
20190423221011 56 204 3.0 5.0 0.00 0.00 0.00 72 975.4
20190423220011 57 210 2.0 2.0 0.00 0.00 0.00 72 975.3
20190423215011 57 208 1.0 2.0 0.00 0.00 0.00 72 975.3
20190423214011 57 219 1.0 2.0 0.00 0.00 0.00 72 975.3
20190423213011 57 218 1.0 2.0 0.00 0.00 0.00 72 975.2
20190423212011 58 213 3.0 4.0 0.00 0.00 0.00 73 975.4
20190423211008 58 202 4.0 4.0 0.00 0.00 0.00 72 975.4
20190423210011 59 186 3.0 4.0 0.00 0.00 0.00 72 975.5
20190423205010 59 136 1.0 3.0 0.00 0.00 0.00 71 975.9
20190423204011 59 90 1.0 2.0 0.00 0.00 0.00 70 975.6
20190423203011 60 121 1.0 2.0 0.00 0.00 0.00 70 975.7
20190423202011 60 171 1.0 2.0 0.00 0.00 0.00 68 975.7
20190423201011 60 188 3.0 5.0 0.00 0.00 0.00 68 976.0
20190423200011 60 205 2.0 4.0 0.00 0.00 0.00 69 975.9
20190423195011 60 242 1.0 2.0 0.00 0.00 0.00 69 975.8
20190423194011 61 210 1.0 2.0 0.00 0.00 0.00 68 976.1
20190423193011 61 233 1.0 2.0 0.00 0.00 0.00 66 976.0
20190423192011 61 239 0.0 1.0 0.00 0.00 0.00 65 976.1
20190423191011 62 135 1.0 2.0 0.00 0.00 0.00 64 976.0
20190423190011 62 175 1.0 2.0 0.00 0.00 0.00 63 976.3
20190423185011 62 184 1.0 2.0 0.00 0.00 0.00 62 976.2
20190423184011 63 191 1.0 2.0 0.00 0.00 0.00 62 976.1
20190423183011 63 194 2.0 3.0 0.00 0.00 0.00 62 976.2
20190423182011 64 211 1.0 2.0 0.00 0.00 0.00 58 976.1
20190423181011 64 187 1.0 2.0 0.00 0.00 0.00 57 976.0
20190423180011 64 209 2.0 4.0 0.00 0.00 0.00 55 975.9
20190423175011 64 188 2.0 2.0 0.00 0.00 0.00 54 976.3
20190423174011 65 203 3.0 4.0 0.00 0.00 0.00 54 976.3
20190423173011 65 201 3.0 4.0 0.00 0.00 0.00 53 976.2
20190423172011 65 205 3.0 4.0 0.00 0.00 0.00 52 976.2
20190423171011 65 177 3.0 4.0 0.00 0.00 0.00 51 976.2
20190423170011 66 223 2.0 4.0 0.00 0.00 0.00 51 976.1
20190423165011 65 214 2.0 4.0 0.00 0.00 0.00 50 976.2
20190423164010 65 201 2.0 4.0 0.00 0.00 0.00 51 976.2
20190423163011 65 187 3.0 4.0 0.00 0.00 0.00 50 976.4
20190423162011 65 229 2.0 4.0 0.00 0.00 0.00 50 976.1
20190423161011 65 213 3.0 5.0 0.00 0.00 0.00 51 976.3
20190423160011 65 199 3.0 5.0 0.00 0.00 0.00 50 976.3
20190423155011 66 188 4.0 4.0 0.00 0.00 0.00 53 976.5
20190423154011 66 209 3.0 4.0 0.00 0.00 0.00 52 976.5
20190423153011 66 245 3.0 6.0 0.00 0.00 0.00 52 976.7
20190423152011 67 192 3.0 6.0 0.00 0.00 0.00 51 976.8
20190423151010 67 179 2.0 3.0 0.00 0.00 0.00 52 976.9
20190423150011 67 165 2.0 4.0 0.00 0.00 0.00 52 976.9
20190423145010 67 137 3.0 4.0 0.00 0.00 0.00 50 976.9
20190423144010 68 97 2.0 3.0 0.00 0.00 0.00 50 976.7
20190423143011 68 146 2.0 2.0 0.00 0.00 0.00 50 976.7
20190423142010 68 182 3.0 5.0 0.00 0.00 0.00 50 977.0
20190423141011 68 179 3.0 4.0 0.00 0.00 0.00 49 977.1
20190423140011 68 217 4.0 4.0 0.00 0.00 0.00 50 977.1
20190423135011 68 206 3.0 4.0 0.00 0.00 0.00 49 977.1
20190423134010 68 204 4.0 6.0 0.00 0.00 0.00 47 977.2
20190423133011 69 190 3.0 4.0 0.00 0.00 0.00 47 977.1
20190423132010 69 221 5.0 7.0 0.00 0.00 0.00 47 977.1
20190423131011 71 205 4.0 8.0 0.00 0.00 0.00 44 977.2
20190423130010 70 220 6.0 8.0 0.00 0.00 0.00 42 977.1
20190423125011 72 189 7.0 11.0 0.00 0.00 0.00 40 977.4
20190423124011 74 199 5.0 9.0 0.00 0.00 0.00 34 977.5
20190423123010 74 155 5.0 9.0 0.00 0.00 0.00 36 977.4
20190423122011 74 182 6.0 9.0 0.00 0.00 0.00 38 977.4
20190423121010 74 204 5.0 7.0 0.00 0.00 0.00 35 977.3
20190423120011 74 175 5.0 8.0 0.00 0.00 0.00 37 977.3
20190423115010 74 232 4.0 8.0 0.00 0.00 0.00 39 977.6
20190423114010 73 251 4.0 7.0 0.00 0.00 0.00 40 977.7
20190423113010 73 201 4.0 6.0 0.00 0.00 0.00 39 977.4
20190423112012 74 222 3.0 6.0 0.00 0.00 0.00 40 977.6
20190423111010 72 219 4.0 7.0 0.00 0.00 0.00 45 977.6
20190423110010 71 182 5.0 8.0 0.00 0.00 0.00 44 977.4
20190423105010 72 186 4.0 6.0 0.00 0.00 0.00 41 977.7
20190423104010 71 126 5.0 7.0 0.00 0.00 0.00 44 977.7
20190423103010 71 244 4.0 7.0 0.00 0.00 0.00 47 977.8
20190423102011 69 162 4.0 7.0 0.00 0.00 0.00 50 977.7
20190423101010 69 131 4.0 6.0 0.00 0.00 0.00 50 977.8
20190423100010 68 264 3.0 4.0 0.00 0.00 0.00 50 977.8
20190423095010 67 156 4.0 5.0 0.00 0.00 0.00 50 977.6
20190423094010 67 196 4.0 5.0 0.00 0.00 0.00 49 977.7
20190423093010 67 113 3.0 6.0 0.00 0.00 0.00 50 977.7
20190423092011 67 342 3.0 5.0 0.00 0.00 0.00 52 977.9
20190423091010 67 214 3.0 5.0 0.00 0.00 0.00 51 977.9
20190423090010 66 153 4.0 5.0 0.00 0.00 0.00 51 978.0
20190423085010 66 189 2.0 4.0 0.00 0.00 0.00 52 977.8
20190423084010 64 74 3.0 4.0 0.00 0.00 0.00 54 978.0
20190423083010 64 133 3.0 4.0 0.00 0.00 0.00 54 978.0
20190423082010 64 278 1.0 4.0 0.00 0.00 0.00 57 978.0
20190423081010 63 89 1.0 2.0 0.00 0.00 0.00 63 978.0
20190423080010 62 35 2.0 3.0 0.00 0.00 0.00 63 978.0
20190423075010 62 1 2.0 3.0 0.00 0.00 0.00 62 978.3
20190423074010 62 328 2.0 4.0 0.00 0.00 0.00 62 978.3
20190423073010 62 358 1.0 2.0 0.00 0.00 0.00 68 978.1
20190423072010 60 40 2.0 2.0 0.00 0.00 0.00 67 978.2
20190423071010 60 33 1.0 2.0 0.00 0.00 0.00 71 978.4
20190423070010 58 6 1.0 2.0 0.00 0.00 0.00 73 978.3
20190423065010 57 11 1.0 2.0 0.00 0.00 0.00 77 978.5
20190423064010 55 353 1.0 2.0 0.00 0.00 0.00 80 978.2
20190423063010 54 44 1.0 2.0 0.00 0.00 0.00 82 978.3
20190423062011 54 1 1.0 2.0 0.00 0.00 0.00 83 978.2
20190423061010 53 270 0.0 2.0 0.00 0.00 0.00 82 978.4
20190423060010 53 314 0.0 1.0 0.00 0.00 0.00 82 978.1
20190423055010 53 0 0.0 0.0 0.00 0.00 0.00 81 978.2
20190423054010 54 32 0.0 1.0 0.00 0.00 0.00 81 978.2
20190423053010 54 17 0.0 2.0 0.00 0.00 0.00 81 978.1
20190423052010 54 47 1.0 2.0 0.00 0.00 0.00 80 978.2
20190423051010 54 63 1.0 2.0 0.00 0.00 0.00 80 978.3
20190423050010 54 45 0.0 1.0 0.00 0.00 0.00 80 978.3
20190423045010 54 78 1.0 2.0 0.00 0.00 0.00 80 978.4
20190423044010 54 8 2.0 3.0 0.00 0.00 0.00 79 978.5
20190423043010 54 76 1.0 3.0 0.00 0.00 0.00 75 978.7
20190423042010 55 191 3.0 4.0 0.00 0.00 0.00 76 978.8
20190423041010 54 70 2.0 4.0 0.00 0.00 0.00 80 978.4
20190423040010 54 58 1.0 2.0 0.00 0.00 0.00 77 978.6
20190423035010 54 21 2.0 3.0 0.00 0.00 0.00 77 978.4
20190423034010 54 41 1.0 2.0 0.00 0.00 0.00 76 978.8
20190423033010 55 1 1.0 2.0 0.00 0.00 0.00 75 978.7
20190423032010 55 335 1.0 2.0 0.00 0.00 0.00 75 979.0
20190423031011 55 314 1.0 2.0 0.00 0.00 0.00 75 979.2
20190423030010 55 0 0.0 0.0 0.00 0.00 0.00 75 979.1
20190423025010 55 34 1.0 3.0 0.00 0.00 0.00 75 979.1
20190423024010 55 53 3.0 3.0 0.00 0.00 0.00 75 979.3
20190423023010 55 38 2.0 2.0 0.00 0.00 0.00 75 979.3
20190423022010 55 39 2.0 3.0 0.00 0.00 0.00 75 979.5
20190423021010 55 19 2.0 3.0 0.00 0.00 0.00 75 979.7
20190423020010 55 68 2.0 2.0 0.00 0.00 0.00 75 979.7
20190423015010 55 347 2.0 4.0 0.00 0.00 0.00 75 979.7
20190423014010 55 50 2.0 3.0 0.00 0.00 0.00 75 979.9
20190423013010 55 45 2.0 3.0 0.00 0.00 0.00 75 980.0
20190423012010 55 50 2.0 4.0 0.00 0.00 0.00 76 980.2
20190423011011 55 1 1.0 2.0 0.00 0.00 0.00 76 980.5
20190423010010 55 275 1.0 2.0 0.00 0.00 0.00 77 980.5
20190423005010 55 42 1.0 2.0 0.00 0.00 0.00 77 980.6
20190423004010 55 42 2.0 4.0 0.00 0.00 0.00 77 980.7
20190423003017 55 56 2.0 2.0 0.00 0.00 0.00 77 980.7
20190423002017 55 131 1.0 2.0 0.00 0.00 0.00 77 980.7
20190423001017 55 93 2.0 4.0 0.00 0.00 0.00 77 981.2